FW9892 Weather Reports


time (UTC)temp
F
wind
direction
speed
knots
gust
knots
rain 1hr
in
rain 24hr
in
rain mn
in
humidity
%
barometer
mb
20260507154558 59 0 0.0 3.5 0.00 0.00 0.00 60 1015.8
20260507153106 59 0 0.0 2.6 0.00 0.00 0.00 62 1015.8
20260507151601 59 360 0.0 1.7 0.00 0.00 0.00 59 1015.7
20260507150108 59 0 0.0 0.0 0.00 0.00 0.00 60 1015.8
20260507144609 59 0 0.0 0.9 0.00 0.00 0.00 60 1015.7
20260507143054 59 0 0.0 0.9 0.00 0.00 0.00 57 1015.6
20260507141602 59 0 0.0 1.7 0.00 0.00 0.00 59 1015.9
20260507140116 59 0 0.0 3.5 0.00 0.00 0.00 59 1015.9
20260507134556 60 0 0.0 0.9 0.00 0.00 0.00 63 1016.0
20260507133057 59 0 0.0 3.5 0.00 0.00 0.00 59 1015.9
20260507131604 60 0 0.0 4.3 0.00 0.00 0.00 58 1015.9
20260507130111 59 0 0.0 1.7 0.00 0.00 0.00 59 1015.9
20260507124607 59 0 0.0 1.7 0.00 0.00 0.00 58 1015.9
20260507123101 59 360 0.9 4.3 0.00 0.00 0.00 56 1015.9
20260507121556 60 0 0.0 4.3 0.00 0.00 0.00 56 1015.8
20260507120050 61 121 0.0 7.0 0.00 0.00 0.00 57 1015.7
20260507114555 60 0 0.0 5.2 0.00 0.00 0.00 65 1015.8
20260507113055 58 0 0.0 2.6 0.00 0.00 0.00 62 1015.8
20260507111552 58 0 0.0 7.0 0.00 0.00 0.00 63 1015.8
20260507110054 59 0 0.0 5.2 0.00 0.00 0.00 60 1015.9
20260507104550 59 360 0.9 7.8 0.00 0.00 0.00 61 1015.9
20260507103055 59 0 1.7 7.0 0.00 0.00 0.00 64 1015.8
20260507101555 57 0 0.9 4.3 0.00 0.00 0.00 65 1015.8
20260507100057 57 0 0.0 7.0 0.00 0.00 0.00 67 1015.8
20260507093051 59 0 0.0 3.5 0.00 0.00 0.00 74 1015.7
20260507091551 57 0 0.0 1.7 0.00 0.00 0.00 74 1015.6
20260507090051 57 0 0.0 1.7 0.00 0.00 0.00 72 1015.6
20260507084553 56 0 0.0 1.7 0.00 0.00 0.00 75 1015.5
20260507083050 55 0 0.0 0.9 0.00 0.00 0.00 77 1015.5
20260507081550 55 0 0.0 2.6 0.00 0.00 0.00 78 1015.4
20260507080126 54 0 0.0 1.7 0.00 0.00 0.00 82 1015.2
20260507074558 53 0 0.0 1.7 0.00 0.01 0.00 81 1015.3
20260507073058 53 0 0.0 0.0 0.00 0.01 0.00 81 1015.2
20260507071603 52 0 0.0 0.0 0.00 0.01 0.00 83 1015.0
20260507070055 51 0 0.0 0.0 0.00 0.01 0.00 84 1015.0
20260507064557 50 0 0.0 0.0 0.00 0.03 0.00 84 1015.0
20260507063054 50 0 0.0 0.0 0.00 0.03 0.00 84 1015.0
20260507061553 49 0 0.0 0.0 0.00 0.03 0.00 84 1014.8
20260507060050 49 0 0.0 0.0 0.00 0.03 0.00 86 1014.7
20260507054555 48 0 0.0 0.0 0.00 0.05 0.00 88 1014.6
20260507053049 48 0 0.0 0.0 0.00 0.05 0.00 89 1014.3
20260507051549 48 0 0.0 0.0 0.00 0.05 0.00 89 1014.4
20260507050055 48 0 0.0 0.0 0.00 0.05 0.00 90 1014.2
20260507044618 48 0 0.0 0.0 0.00 0.07 0.00 90 1014.2
20260507043053 48 0 0.0 0.0 0.00 0.07 0.00 90 1013.9
20260507041559 48 0 0.0 0.0 0.00 0.07 0.00 89 1013.8
20260507040104 48 0 0.0 0.0 0.00 0.07 0.00 89 1013.7
20260507034558 47 0 0.0 0.0 0.00 0.08 0.00 87 1013.7
20260507033049 47 0 0.0 0.0 0.00 0.08 0.00 87 1013.6
20260507031548 48 0 0.0 0.0 0.00 0.08 0.00 88 1013.6
20260507030053 48 0 0.0 0.0 0.00 0.08 0.00 89 1013.5
20260507024548 48 0 0.0 0.0 0.00 0.11 0.00 88 1013.4
20260507023051 48 0 0.0 0.0 0.00 0.11 0.00 89 1013.4
20260507021550 48 0 0.0 0.0 0.00 0.11 0.00 89 1013.3
20260507014601 48 0 0.0 0.0 0.00 0.16 0.00 88 1013.1
20260507013049 48 0 0.0 0.0 0.00 0.16 0.00 88 1013.2
20260507011601 48 0 0.0 0.0 0.00 0.16 0.00 88 1013.1
20260507010048 48 0 0.0 0.0 0.00 0.16 0.00 87 1013.2
20260507004550 48 0 0.0 0.0 0.00 0.22 0.00 87 1013.2
20260507003050 48 0 0.0 0.0 0.00 0.22 0.00 87 1013.1
20260507001612 48 0 0.0 0.0 0.00 0.22 0.00 88 1013.0
20260507000057 48 0 0.0 0.0 0.00 0.22 0.00 89 1013.0
20260506234548 48 0 0.0 0.0 0.00 0.26 0.00 89 1013.0
20260506233059 48 0 0.0 0.0 0.00 0.26 0.00 89 1012.9
20260506231557 48 0 0.0 0.0 0.00 0.26 0.00 89 1012.8
20260506230053 48 0 0.0 0.0 0.00 0.26 0.00 89 1012.7
20260506224557 48 0 0.0 0.0 0.00 0.32 0.00 89 1012.5
20260506223059 48 0 0.0 0.0 0.00 0.32 0.00 89 1012.4
20260506221553 48 0 0.0 0.0 0.00 0.32 0.00 89 1012.4
20260506220059 48 0 0.0 0.0 0.00 0.32 0.00 89 1012.1
20260506214548 48 0 0.0 0.0 0.00 0.40 0.32 89 1012.2
20260506213100 48 0 0.0 0.0 0.00 0.40 0.32 88 1012.0
20260506211552 48 0 0.0 4.3 0.00 0.40 0.32 88 1012.0
20260506210114 48 0 0.0 0.0 0.00 0.40 0.32 87 1011.9
20260506204556 48 0 0.0 3.5 0.00 0.48 0.32 86 1011.8
20260506203139 48 0 0.0 3.5 0.00 0.48 0.32 86 1011.7
20260506201554 48 0 0.0 1.7 0.00 0.48 0.32 86 1011.4
20260506200054 48 0 0.0 0.0 0.00 0.48 0.32 83 1011.5
20260506194556 48 0 0.0 0.0 0.00 0.57 0.32 82 1011.2
20260506193052 49 0 0.0 3.5 0.00 0.57 0.32 81 1011.1
20260506191605 49 0 0.0 4.3 0.00 0.57 0.32 80 1010.9
20260506190054 50 0 0.0 4.3 0.00 0.57 0.32 79 1010.7
20260506184559 51 360 0.0 4.3 0.00 0.59 0.32 77 1010.6
20260506183057 52 0 0.0 7.0 0.00 0.59 0.32 74 1010.5
20260506181613 53 0 0.0 3.5 0.00 0.59 0.32 73 1010.2
20260506174607 53 360 0.0 4.3 0.00 0.59 0.32 73 1009.8
20260506173055 54 0 0.0 7.0 0.00 0.59 0.32 74 1009.6
20260506171606 54 360 2.6 7.8 0.00 0.59 0.32 74 1009.6
20260506170054 55 360 0.0 7.0 0.00 0.59 0.32 75 1009.3
20260506164558 56 360 0.9 6.1 0.00 0.59 0.32 72 1009.2
20260506163121 56 0 0.0 2.6 0.00 0.59 0.32 72 1009.2
20260506161554 56 0 0.0 3.5 0.00 0.59 0.32 73 1009.1